Regional Weather Roundup
Issued by NWS Raleigh/Durham, NC

Home | Current Version | Previous Version | Text Only | Print | Product List | Glossary On
Versions: 1 2 3 4 5 6 7 8 9 10 11 12 13 14 15 16 17 18 19 20 21 22 23 24 25 26 27 28 29 30 31 32 33 34 35 36 37 38 39 40 41 42 43 44 45 46 47 48 49 50
000
ASUS42 KRAH 091910
RWRRAH
NORTH CAROLINA WEATHER ROUNDUP
NATIONAL WEATHER SERVICE RALEIGH NC
200 PM EST TUE FEB 09 2016

NOTE: "FAIR" INDICATES FEW OR NO CLOUDS BELOW 12,000 FEET WITH NO
SIGNIFICANT WEATHER AND/OR OBSTRUCTIONS TO VISIBILITY.

NCZ001-053-055-056-065-067-092000-
WESTERN NORTH CAROLINA

CITY           SKY/WX    TMP DP  RH WIND       PRES   REMARKS
ASHEVILLE      CLOUDY    28   9  44 NW13G21   29.67F WCI  17
JEFFERSON      LGT SNOW  19   9  65 W10G30    29.57S WCI   7
MORGANTON      CLOUDY    32   9  37 W13       29.73S WCI  23
HICKORY        CLOUDY    33  10  38 W15       29.67S WCI  23
RUTHERFORDTON  CLOUDY    33   9  36 NW14G29   29.71F WCI  23
MOUNT AIRY     CLOUDY    35  14  42 W9G20     29.65R WCI  27
BOONE          LGT SNOW  19  13  75 W13G25    29.58S WCI   6
$$

NCZ021-022-025-041-071-084-088-092000-
CENTRAL NORTH CAROLINA

CITY           SKY/WX    TMP DP  RH WIND       PRES   REMARKS
CHARLOTTE      CLOUDY    38  15  39 W10G20    29.69F WCI  31
GREENSBORO     CLOUDY    38  16  40 W15G22    29.61F WCI  29
WINSTON-SALEM  CLOUDY    36  15  42 NW10      29.64S WCI  28
RALEIGH-DURHAM PTSUNNY   42  23  46 W8        29.62F
FORT BRAGG     CLOUDY    46  20  36 W20G31    29.63F
FAYETTEVILLE   PTSUNNY   45  22  40 W21G28    29.65F
BURLINGTON     CLOUDY    41  17  38 W14       29.61F
LAURINBURG     CLOUDY    45  20  36 W17G25    29.68F
$$

NCZ011-015-027-028-043-044-047-080-103-092000-
NORTHEASTERN NORTH CAROLINA

CITY           SKY/WX    TMP DP  RH WIND       PRES   REMARKS
ROCKY MT-WILSO LGT RAIN  38  33  82 W9G23     29.61F WCI  31
GREENVILLE     LGT RAIN  39  36  87 N7        29.64S WCI  34
WASHINGTON     MOSUNNY   45  32  59 W14       29.60S
ELIZABETH CITY CLOUDY    48  29  47 W14       29.57F
MANTEO         CLOUDY    49  32  52 W16G22    29.59S
CAPE HATTERAS  PTSUNNY   47  34  60 W9G18     29.62F
$$

NCZ078-087-090-091-093-098-101-092000-
SOUTHEASTERN NORTH CAROLINA

CITY           SKY/WX    TMP DP  RH WIND       PRES   REMARKS
LUMBERTON      CLOUDY    45  24  43 W18G26    29.67F
GOLDSBORO      CLOUDY    46  32  57 SW20      29.60F
KINSTON        MOSUNNY   48  32  53 SW17G24   29.62F
KENANSVILLE    CLOUDY    43  28  54 W14       29.65S
NEW BERN       CLOUDY    46  31  55 W13G24    29.63F
CHERRY POINT   CLOUDY    47  32  56 MISG      29.63F
BEAUFORT       PTSUNNY   47  35  63 SW20G25   29.63F
JACKSONVILLE   PTSUNNY   47  26  44 W17G23    29.64S
WILMINGTON     MOSUNNY   48  26  42 W20G28    29.67F
$$




USA.gov is the U.S. government's official web portal to all federal, state and local government web resources and services.